User: anonymous   Login
Location: NJAA Observatory
(40.6819°N, 74.8979°W)
Time: 21:44:32
(UTC-04:00)
Language:

ATLAS CENTAUR R/B - Orbit

View from above orbital plane
View from above orbital plane
View from above satellite
View from above satellite

Ground track
Ground track

The orbit data is extracted from the following two-line orbital elements,

1 28385U 04034B   16269.84795464 0.00056500  00000-0  10648-2 0    08
2 28385  57.3157 260.0675 3751014 348.2297   4.9778  7.99796056    01
Epoch (UTC): 25 September 2016 20:21:03
Eccentricity: 0.3751014
inclination: 57.3157°
perigee height: 222 km
apogee height: 8146 km
right ascension of ascending node: 260.0675°
argument of perigee: 348.2297°
revolutions per day: 7.99796056
mean anomaly at epoch: 4.9778°
orbit number at epoch: 0

The dashed part of the orbit path shows where the satellite is in the earth's shadow,  

DLR